Hourly Data Report for June 23, 2022

VICTORIA UNIVERSITY CS
BRITISH COLUMBIA
Current Station Operator: ECCC - MSC

48°27'25.200" N
123°18'16.600" W
60.10 m
1018598
71783
WYJ

Download Data

Hourly Data (June 2022)
Hourly Data Report for June 23, 2022
TIME
LST
Temp Definition
°C
Dew Point Definition
°C
Rel Hum Definition
%
Precip. Amount Definition
mm

Wind Dir Definition
10's deg

Wind Spd Definition
km/h
Visibility Definition
km
Stn Press Definition
kPa
Hmdx Definition


Wind Chill Definition


Weather Definition


00:00 10.6 7.1 79 0.0 25 6   101.23     LegendNANA
01:00 9.3 6.8 84 0.0 26 5   101.27     LegendNANA
02:00 9.7 7.2 85 0.0 25 4   101.28     LegendNANA
03:00 8.7 7.1 90 0.0 26 4   101.29     LegendNANA
04:00 7.6 6.5 93 0.0 27 3   101.29     LegendNANA
05:00 8.4 7.0 91 0.0 7 3   101.31     LegendNANA
06:00 11.2 8.8 85 0.0 11 1   101.33     LegendNANA
07:00 12.7 9.0 79 0.0 18 5   101.40     LegendNANA
08:00 13.0 8.6 75 0.0 10 4   101.45     LegendNANA
09:00 13.0 8.2 73 0.0 9 6   101.47     LegendNANA
10:00 14.4 8.8 69 0.0 10 4   101.46     LegendNANA
11:00 14.6 8.5 67 0.0 8 6   101.49     LegendNANA
12:00 16.5 7.2 54 0.0 12 3   101.49     LegendNANA
13:00 16.5 6.7 52 0.0 10 4   101.48     LegendNANA
14:00 17.0 7.7 54 0.0 14 3   101.43     LegendNANA
15:00 17.7 6.7 48 0.0 7 4   101.41     LegendNANA
16:00 18.1 6.4 46 0.0 2 7   101.38     LegendNANA
17:00 18.0 6.8 48 0.0 20 5   101.37     LegendNANA
18:00 17.5 7.6 52 0.0 27 4   101.39     LegendNANA
19:00 17.0 6.4 49 0.0 22 4   101.36     LegendNANA
20:00 14.1 7.0 62 0.0 21 2   101.36     LegendNANA
21:00 11.3 7.5 77 0.0 25 3   101.40     LegendNANA
22:00 10.7 7.6 81 0.0 29 5   101.42     LegendNANA
23:00 10.0 7.4 84 0.0 25 2   101.46     LegendNANA

Notes on Data Quality.

Legend

  • E = Estimated
  • M = Missing
  • NA = Not Available*
  • [empty] = Indicates an unobserved value
Date modified: